STARLINK-5736 (55584 NORAD) Tracking and Keplerian Element Data

This shows tracking and keplerian element data for the satellite.

Feedback or suggestion? Click here.




ElementValue
Catalog55584
NameSTARLINK-5736
Epoch Orbit130
Epoch Day84.91667824
Epoch Year2023
RAAN111.9333
Inclination42.9967
Eccentricity0.0001372
Argument of Perigee262.2452
Mean Anonmoly42.4133
Mean Motion15.07924008
Decay Rate-0.01163916
L11 55584U 23020R 23084.91667824 -.01163916 00000+0 -81122-1 0 9997
L22 55584 42.9967 111.9333 0001372 262.2452 42.4133 15.07924008 1300



Live tracking and technical data element details for STARLINK-5736 (NORAD 55584). STARLINK-5736 can be tracked NOW for your location showing map with azimuth and elevation plus other details from your city location.







IsCatalogInMostPopularTable: catalog: 55584, numindb: -1

Insert: records affected: 1


GetName: 55584 STARLINK-5736

Hit Count: inserted at: Tue, 28 Mar 2023 01:29:30 GMT